FW3073 Weather Reports


Display with metric or nautical units.
time (UTC)temp
F
wind
direction
speed
MPH
gust
MPH
rain 1hr
in
rain 24hr
in
rain mn
in
humidity
%
barometer
mb
20260904210004 67 311 2.0 6.0 0.00 0.95 0.89 90 1002.2
20260904205003 68 291 1.0 4.0 0.00 0.95 0.89 89 1002.2
20260904204212 69 268 1.0 3.0 0.00 0.95 0.89 88 1002.6
20260904203003 69 303 0.0 3.0 0.00 0.95 0.89 89 1002.6
20260904202003 68 297 0.0 3.0 0.00 0.95 0.89 90 1002.6
20260904201003 68 38 0.0 2.0 0.00 0.95 0.89 89 1002.9
20260904200003 69 354 1.0 3.0 0.00 0.95 0.89 88 1002.9
20260904195003 70 59 0.0 3.0 0.00 0.95 0.89 87 1002.6
20260904194003 70 69 0.0 2.0 0.00 0.95 0.89 87 1002.6
20260904193214 70 25 1.0 3.0 0.00 0.95 0.89 87 1002.6
20260904192003 70 88 0.0 3.0 0.00 0.95 0.89 89 1003.2
20260904191003 69 73 1.0 4.0 0.00 0.95 0.89 90 1002.9
20260904190003 68 87 1.0 3.0 0.00 0.95 0.89 91 1002.9
20260904185003 68 88 0.0 2.0 0.00 0.95 0.89 93 1003.2
20260904184003 68 82 0.0 3.0 0.00 0.95 0.89 93 1003.2
20260904183003 68 97 1.0 2.0 0.00 0.95 0.89 94 1003.2
20260904182003 67 91 0.0 3.0 0.00 0.95 0.89 95 1003.2
20260904181003 67 87 1.0 4.0 0.00 0.95 0.89 94 1003.2
20260904180003 68 67 0.0 2.0 0.00 0.95 0.89 93 1003.2
20260904175003 68 77 0.0 2.0 0.00 0.95 0.89 92 1003.2
20260904174003 68 46 0.0 3.0 0.00 0.95 0.89 92 1003.6
20260904173003 69 83 1.0 4.0 0.00 0.95 0.89 91 1003.6
20260904172003 69 75 1.0 3.0 0.00 0.95 0.89 90 1003.6
20260904171213 69 72 1.0 4.0 0.00 0.95 0.89 92 1003.6
20260904170004 70 49 1.0 3.0 0.00 0.95 0.89 91 1003.9
20260904165003 69 54 1.0 2.0 0.00 0.95 0.89 93 1003.9
20260904164003 68 72 1.0 4.0 0.00 0.95 0.89 94 1003.9
20260904163213 68 79 1.0 4.0 0.00 0.95 0.89 93 1003.9
20260904162003 69 68 1.0 3.0 0.00 0.95 0.89 93 1004.3
20260904161003 69 58 0.0 2.0 0.00 0.95 0.89 93 1004.3
20260904160003 69 83 1.0 6.0 0.01 0.95 0.89 93 1004.6
20260904155213 69 4 0.0 2.0 0.01 0.95 0.89 94 1004.6
20260904154003 68 88 0.0 1.0 0.01 0.95 0.89 97 1004.9
20260904153212 67 77 0.0 2.0 0.01 0.95 0.89 97 1004.6
20260904152003 66 71 0.0 2.0 0.01 0.95 0.89 98 1004.9
20260904151003 66 56 1.0 3.0 0.01 0.95 0.89 98 1005.3
20260904150004 66 59 0.0 3.0 0.00 0.94 0.88 98 1005.3
20260904145212 66 97 0.0 1.0 0.00 0.94 0.88 98 1005.3
20260904144003 66 57 0.0 2.0 0.01 0.94 0.88 99 1005.3
20260904143214 66 71 0.0 2.0 0.01 0.94 0.88 99 1005.3
20260904142003 66 80 0.0 3.0 0.01 0.94 0.88 99 1005.6
20260904141003 65 102 0.0 2.0 0.01 0.94 0.88 99 1005.6
20260904140214 65 63 0.0 2.0 0.01 0.94 0.88 99 1005.6
20260904135214 65 89 0.0 2.0 0.01 0.94 0.88 99 1005.6
20260904134003 65 38 0.0 2.0 0.01 0.93 0.87 99 1005.6
20260904133003 65 55 0.0 1.0 0.01 0.93 0.87 99 1006.0
20260904132003 64 19 0.0 3.0 0.01 0.93 0.87 99 1006.0
20260904131003 64 161 0.0 1.0 0.01 0.93 0.87 99 1006.0
20260904130003 64 55 0.0 3.0 0.01 0.93 0.87 99 1006.0
20260904125003 64 0 0.0 0.0 0.01 0.92 0.86 99 1006.3
20260904124003 63 62 0.0 2.0 0.01 0.92 0.86 99 1006.0
20260904123003 63 25 0.0 1.0 0.02 0.92 0.86 99 1006.3
20260904122003 63 29 0.0 1.0 0.02 0.92 0.86 99 1006.6
20260904121003 63 28 0.0 1.0 0.02 0.92 0.86 99 1006.6
20260904120003 62 0 0.0 0.0 0.03 0.92 0.86 99 1006.6
20260904115003 62 0 0.0 0.0 0.03 0.91 0.85 99 1007.0
20260904114003 62 0 0.0 0.0 0.04 0.91 0.85 99 1007.0
20260904113003 62 40 0.0 1.0 0.05 0.90 0.84 99 1007.0
20260904112004 62 0 0.0 0.0 0.08 0.90 0.84 99 1007.0
20260904111003 62 342 0.0 1.0 0.09 0.90 0.84 99 1007.3
20260904110004 61 40 0.0 3.0 0.08 0.89 0.83 99 1007.0
20260904105003 61 38 0.0 1.0 0.08 0.88 0.82 99 1007.3
20260904104003 61 22 0.0 1.0 0.08 0.87 0.81 99 1007.3
20260904103004 61 44 0.0 1.0 0.08 0.85 0.79 99 1007.0
20260904102004 61 115 0.0 1.0 0.06 0.82 0.76 99 1007.3
20260904101003 61 82 0.0 3.0 0.05 0.81 0.75 99 1007.7
20260904100003 61 63 0.0 2.0 0.06 0.81 0.75 99 1007.3
20260904095003 61 183 0.0 2.0 0.06 0.80 0.74 99 1007.3
20260904094003 60 71 0.0 2.0 0.06 0.79 0.73 99 1007.7
20260904093004 60 117 0.0 2.0 0.04 0.77 0.71 99 1007.7
20260904092003 60 7 0.0 1.0 0.03 0.76 0.70 99 1007.7
20260904091003 60 32 0.0 1.0 0.04 0.76 0.70 99 1007.7
20260904090004 60 98 0.0 2.0 0.03 0.75 0.69 99 1007.7
20260904085003 60 71 0.0 2.0 0.04 0.74 0.68 99 1008.0
20260904084004 60 109 0.0 1.0 0.05 0.73 0.67 99 1008.0
20260904083004 60 38 1.0 4.0 0.05 0.73 0.67 99 1008.4
20260904082003 60 54 0.0 3.0 0.05 0.73 0.67 99 1008.4
20260904081003 60 129 0.0 1.0 0.04 0.72 0.66 99 1008.4
20260904080003 59 56 0.0 3.0 0.04 0.72 0.66 99 1008.7
20260904075003 59 168 0.0 3.0 0.03 0.70 0.64 99 1008.7
20260904074003 59 152 0.0 2.0 0.02 0.68 0.62 99 1008.7
20260904073003 59 117 0.0 1.0 0.02 0.68 0.62 99 1009.0
20260904072003 59 151 0.0 1.0 0.03 0.68 0.62 99 1009.0
20260904071003 59 121 0.0 2.0 0.04 0.68 0.62 99 1009.4
20260904070003 59 165 0.0 2.0 0.04 0.68 0.62 99 1009.4
20260904065213 59 151 1.0 3.0 0.04 0.67 0.61 99 1009.4
20260904064003 59 168 1.0 3.0 0.03 0.66 0.60 99 1009.7
20260904063004 59 182 1.0 6.0 0.03 0.66 0.60 99 1009.7
20260904062003 59 131 2.0 6.0 0.02 0.65 0.59 99 1010.1
20260904061213 60 152 1.0 4.0 0.01 0.64 0.59 99 1010.4
20260904060004 60 134 1.0 4.0 0.04 0.64 0.58 99 1010.4
20260904055003 60 195 1.0 2.0 0.05 0.63 0.57 99 1010.4
20260904054003 60 196 1.0 3.0 0.07 0.63 0.57 99 1010.7
20260904053003 60 170 0.0 3.0 0.10 0.63 0.57 99 1010.7
20260904052003 60 174 0.0 3.0 0.14 0.63 0.57 99 1011.1
20260904051003 60 145 1.0 4.0 0.18 0.62 0.56 99 1011.1
20260904050004 60 193 1.0 4.0 0.21 0.60 0.54 99 1011.4
20260904045003 60 158 1.0 2.0 0.25 0.58 0.52 98 1011.4
20260904044003 60 180 1.0 2.0 0.28 0.56 0.50 98 1011.4
20260904043003 60 221 0.0 2.0 0.33 0.53 0.47 98 1011.8
20260904042003 60 201 1.0 3.0 0.37 0.49 0.43 98 1012.1
20260904041003 60 149 0.0 4.0 0.35 0.44 0.38 98 1012.1
20260904040214 60 199 1.0 3.0 0.33 0.40 0.34 98 1012.1
20260904035003 61 167 1.0 3.0 0.28 0.33 0.27 98 1012.4
20260904034003 60 124 0.0 1.0 0.24 0.28 0.22 98 1012.4
20260904033003 61 230 0.0 2.0 0.17 0.20 0.14 98 1012.8
20260904032003 61 171 0.0 1.0 0.10 0.12 0.06 97 1012.4
20260904031214 61 213 0.0 2.0 0.07 0.09 0.04 97 1012.4
20260904030003 61 61 0.0 2.0 0.05 0.06 0.00 97 1012.8
20260904025003 61 92 0.0 2.0 0.04 0.05 0.05 97 1012.4
20260904024003 61 91 0.0 2.0 0.03 0.04 0.04 96 1012.8
20260904023003 61 233 0.0 1.0 0.02 0.03 0.03 96 1013.1
20260904022003 61 214 0.0 1.0 0.01 0.02 0.02 95 1013.1
20260904021003 61 312 0.0 1.0 0.01 0.02 0.02 94 1013.1
20260904020004 62 213 0.0 1.0 0.00 0.01 0.01 93 1013.5
20260904015213 62 107 0.0 2.0 0.00 0.01 0.01 92 1013.1
20260904014003 62 293 0.0 3.0 0.00 0.01 0.01 90 1013.5
20260904013003 62 7 0.0 4.0 0.00 0.01 0.01 89 1013.8
20260904012003 62 306 0.0 2.0 0.00 0.01 0.01 89 1013.8
20260904011213 62 269 0.0 2.0 0.00 0.01 0.01 89 1013.5
20260904010003 62 320 0.0 1.0 0.00 0.01 0.01 89 1013.8
20260904005003 62 252 0.0 2.0 0.00 0.01 0.01 88 1014.1
20260904004003 62 49 0.0 1.0 0.00 0.01 0.01 88 1014.1
20260904003003 63 247 0.0 1.0 0.00 0.01 0.01 88 1014.1
20260904002003 63 193 0.0 2.0 0.00 0.01 0.01 87 1014.1
20260904001003 63 211 0.0 3.0 0.00 0.01 0.01 88 1014.1
20260904000003 63 269 0.0 2.0 0.00 0.01 0.01 87 1014.5
20260903235213 63 216 0.0 2.0 0.00 0.01 0.01 86 1014.5
20260903234003 63 196 0.0 3.0 0.00 0.01 0.01 86 1014.5
20260903233003 63 213 1.0 2.0 0.00 0.01 0.01 85 1014.5
20260903232003 63 216 0.0 2.0 0.00 0.01 0.01 86 1014.8
20260903231212 63 225 0.0 2.0 0.00 0.01 0.01 86 1014.8
20260903230212 63 220 0.0 2.0 0.00 0.01 0.01 85 1014.8
20260903225003 63 181 1.0 4.0 0.00 0.01 0.01 84 1014.8
20260903224003 63 239 0.0 3.0 0.00 0.01 0.01 84 1014.8
20260903223003 63 208 0.0 2.0 0.00 0.01 0.01 84 1015.2
20260903222003 63 203 0.0 2.0 0.00 0.01 0.01 84 1015.2
20260903221003 63 197 1.0 4.0 0.00 0.01 0.01 83 1015.2
20260903220214 63 204 1.0 3.0 0.01 0.01 0.01 83 1015.2
20260903215003 63 193 0.0 2.0 0.01 0.01 0.01 84 1015.2
20260903214003 63 225 0.0 2.0 0.01 0.01 0.01 84 1014.8
20260903213214 63 232 0.0 2.0 0.01 0.01 0.01 84 1015.5
20260903212004 63 199 0.0 2.0 0.01 0.01 0.01 84 1015.2
20260903211003 64 236 0.0 3.0 0.01 0.01 0.01 83 1015.5